Calicut International Airport

Jump to: basic info | weather | frequencies | runways | comments

Related pages: nearby airports | nearby navaids | notams | map

Basic information (top)

Codes: CCJ VOCL
Location: lon 11.136800, lat 75.955299, elev 342 ft / 104 m msl
Status: large_airport
Scheduled airline service: yes
Links: Wikipedia Mobile

Weather (top)

Current conditions (rec'd 2014/10/01 22:00Z):

VOCL 012200Z 09005KT 6000 SCT012 BKN090 24/22 Q1010 NOSIG

Airport forecast (rec'd 2014/10/01 12:00Z):

TAF VOCL 010900Z 0112/0218 22010KT 5000 HZ SCT015 SCT100 
      TEMPO 0112/0115 2000 TSRA/RA SCT008 SCT012 FEW025CB OVC090 
      BECMG 0117/0118 00000KT 4000 HZ 
      TEMPO 0200/0103 2000 TSRA/RA SCT008 SCT012 FEW025CB OVC090 
      BECMG 0203/0204 07005KT 5000 HZ 
      BECMG 20205/0208 25006 16005KT 6000 
      TEMPO 0210/0212 2000 TSRA/RA SCT008 SCT012 FEW025CB OVC080 
      BECMG 0217/0218 00000KT 4000 HZ

Frequencies (top)

Verify before use: may be inaccurate or out of date.

ATIS: 127 MHz (ATIS)
TWR: 122.95 MHz (TWR)

Runways (top)

10/28: 9,383 x 150 ft (2,860 x 46 m) — paved — lighted

Latest comments (top)

Moideenkutty oorakam ( CCJ ): Calicut int airport ( Terminal,1 - ... [read]

Info: Calicut International Airport ... [read]

More... (top)

See also NOTAMs and nearby airports and navaids, or visit the Calicut International Airport page at the main OurAirports website..